Location: Newark
(49.8348°N, 24.0280°E)
Time: 15:21:05
(UTC+00:00)

S-56A Canister/Altair - Pass Details

Date: 28 January 2020
Orbit: 633 x 2499 km, 38.9° (Epoch: 17 February)

Event Time Altitude Azimuth Distance (km) Brightness Sun altitude
Rises 17:01:53 0° 219° (SW) 4,650 12.2 -17.8°
Reaches altitude 10° 17:06:21 10° 204° (SSW) 3,292 11.1 -18.5°
Maximum altitude 17:11:32 19° 162° (SSE) 2,245 9.8 -19.3°
Enters shadow 17:13:44 16° 137° (SE) 2,251 9.6 -19.7°
Drops below altitude 10° 17:15:40 10° 118° (ESE) 2,529 - -20.0°
Sets 17:18:31 0° 100° (E) 3,263 - -20.5°
